[[{"header":{"parameterUnit":"m.s-1","parameterCategory":1,"la1":30.2991,"la2":30.254,"lo1":-89.0895,"lo2":-89.0444,"dy":0.0017,"dx":0.0017,"nx":28,"ny":28,"refTime":"2025-07-02T21:00:00:Z","depth":0,"parameterNumber":2,"parameterNumberName":"U-component_of_WINDS"},"data":[0,0,0,0,0,0,0,0,0,0,0,0,0,0,0,0,0,0,0,0,0,0,0,0,0,0,0,0,0,0,0,0,0,0,0,0,0,0,0,0,0,0,0,0,0,0,0,0,0,0,0,0,0,0,0,0,0,0,0.6637,0.6639,0,0.6737,0.6738,0.674,0.675,0.6749,0.6748,0.6747,0.6853,0.6857,0.686,0,0,0,0,0,0,0,0,0,0,0,0,0,0.646,0.6463,0.6637,0.6639,0.664,0.6737,0.6738,0.674,0.675,0.6749,0.6748,0.6747,0.6852,0.6856,0.6861,0,0,0,0,0,0,0,0,0,0,0,0,0,0.6546,0.6464,0.6637,0.6657,0.6659,0.6737,0.6738,0.674,0.675,0.6749,0.6747,0.6746,0.685,0.6856,0.6861,0.6927,0,0,0.6879,0.6881,0,0,0,0,0,0,0,0,0.6541,0.6553,0.6653,0.6655,0.6659,0.673,0.6715,0.6803,0.6751,0.6716,0.6747,0.6745,0.6813,0.6822,0.6844,0.6932,0.6937,0.6879,0.6882,0.6885,0.6886,0,0,0,0,0,0,0,0.6535,0.6549,0.6677,0.6654,0.6658,0.6662,0.6672,0.6732,0.6772,0.6719,0.672,0.6731,0.6815,0.6839,0.6847,0.6938,0.6879,0.6884,0.6887,0.689,0.7086,0.7088,0,0,0,0,0,0,0.6525,0.6544,0.6674,0.668,0.6595,0.6666,0.6678,0.6708,0.6772,0.678,0.6733,0.6732,0.683,0.684,0.685,0.6932,0.6885,0.689,0.6893,0.7085,0.7087,0.7089,0,0,0,0,0,0,0.6521,0.6537,0.667,0.6612,0.6629,0.6671,0.6705,0.6711,0.6735,0.6782,0.679,0.6749,0.6829,0.6842,0.6908,0.6936,0.6893,0.6898,0.7082,0.7085,0.7088,0.7096,0,0,0,0,0,0,0.6516,0.6535,0.656,0.6612,0.6632,0.6724,0.6707,0.6714,0.6744,0.6744,0.68,0.6807,0.6829,0.6899,0.6914,0.6943,0.6902,0.708,0.7084,0.7087,0.7094,0.7099,0.7103,0,0,0,0,0,0.651,0.6559,0.6561,0.6576,0.6663,0.6726,0.6737,0.676,0.6747,0.6772,0.6802,0.6806,0.6931,0.6906,0.6922,0.6954,0.7078,0.7083,0.7087,0.7091,0.7098,0.7103,0,0,0,0,0,0,0.6509,0.6566,0.6569,0.6636,0.6676,0.6728,0.676,0.6766,0.6812,0.6809,0.6837,0.6849,0.6914,0.694,0.6912,0.7022,0.7003,0.7011,0.7002,0.7008,0.7013,0.7005,0.6907,0,0,0,0,0,0.6516,0.6561,0.6609,0.6664,0.6683,0.6718,0.6747,0.676,0.6803,0.6821,0.6856,0.6898,0.6948,0.6979,0.7027,0.7098,0.7111,0.7128,0.7132,0.7136,0.7142,0.7183,0.7191,0.7102,0.7102,0.7102,0,0,0.6533,0.6569,0.6596,0.6664,0.6697,0.6744,0.6733,0.6783,0.6818,0.6829,0.6892,0.692,0.6969,0.7038,0.707,0.7062,0.717,0.7141,0.7144,0.7148,0.7188,0.7196,0.7204,0.7105,0.7105,0.7104,0,0,0.6586,0.6618,0.6667,0.67,0.6749,0.6772,0.6784,0.6835,0.6854,0.6918,0.6927,0.697,0.7054,0.7089,0.7118,0.7186,0.7191,0.7201,0.7226,0.7265,0.7272,0.7279,0.7304,0.7312,0.7207,0.7207,0.7207,0,0.66,0.667,0.6692,0.6742,0.6772,0.6783,0.6834,0.6865,0.6928,0.695,0.694,0.7045,0.708,0.7157,0.7173,0.7196,0.7212,0.7194,0.7269,0.7276,0.7282,0.7306,0.7315,0.7208,0.7208,0.7207,0.7207,0,0.6686,0.6734,0.6769,0.6828,0.6862,0.6912,0.6943,0.6976,0.6987,0.7011,0.7077,0.7119,0.7175,0.7195,0.7207,0.7274,0.7268,0.7263,0.7246,0.7291,0.7314,0.7324,0.7209,0.7209,0.7208,0.7208,0,0,0.6741,0.6812,0.6824,0.6852,0.6907,0.6946,0.6997,0.7052,0.7079,0.7123,0.7167,0.7238,0.7234,0.7267,0.7283,0.7317,0.7369,0.7309,0.731,0.7319,0.7447,0.745,0.7461,0.7373,0.7375,0.7376,0.7443,0,0.6802,0.6892,0.6913,0.6991,0.7037,0.7048,0.7094,0.7133,0.7158,0.7201,0.7229,0.7279,0.727,0.729,0.7324,0.7355,0.7395,0.7351,0.7416,0.7418,0.7403,0.7473,0.7476,0.7537,0.7452,0.7454,0.7455,0,0.6884,0.6928,0.701,0.706,0.708,0.712,0.7172,0.7213,0.7259,0.7274,0.7311,0.7324,0.7379,0.7359,0.7436,0.7406,0.7434,0.7453,0.7456,0.7463,0.7439,0.7482,0.7558,0.7567,0.7469,0.7468,0.7467,0,0.6916,0.6997,0.7056,0.7079,0.7139,0.7167,0.7193,0.7238,0.7269,0.7315,0.7336,0.7388,0.7417,0.7458,0.7485,0.7467,0.7561,0.7542,0.7576,0.7575,0.7595,0.7594,0.7677,0.7613,0.7613,0.7612,0.7612,0,0.6982,0.7032,0.7072,0.7108,0.7165,0.7191,0.7247,0.7274,0.7313,0.7356,0.737,0.741,0.7443,0.7489,0.7511,0.7572,0.7585,0.76,0.7605,0.7599,0.7597,0.7618,0.7614,0.7615,0.7614,0.7614,0.7613,0,0.7028,0.7056,0.7122,0.7174,0.7188,0.7227,0.7272,0.7309,0.7334,0.7389,0.7403,0.7443,0.7497,0.7528,0.7597,0.7612,0.768,0.7683,0.7664,0.7667,0.7699,0.7696,0.7798,0.7813,0.7739,0.774,0.774,0,0.7067,0.7106,0.7161,0.7191,0.7217,0.7264,0.7296,0.7323,0.7356,0.7412,0.7443,0.7497,0.7543,0.7629,0.7665,0.7718,0.7723,0.7755,0.7731,0.7724,0.7724,0.7722,0.7726,0.776,0.776,0.7761,0.7761,0,0.7135,0.7147,0.7192,0.7243,0.7281,0.7322,0.7363,0.7387,0.7421,0.7457,0.7513,0.7548,0.7618,0.7673,0.7728,0.7757,0.7766,0.7769,0.7779,0.7773,0.7761,0.7769,0.7676,0.7766,0.7766,0.7765,0.7765,0.7765,0.718,0.7215,0.7259,0.7309,0.7343,0.7381,0.7418,0.7448,0.7494,0.7552,0.7566,0.7624,0.767,0.7746,0.7776,0.7823,0.7818,0.7833,0.7837,0.784,0.7842,0.7753,0.7834,0.7833,0.7833,0.7833,0.7833,0,0.7248,0.7277,0.7323,0.738,0.742,0.7423,0.7469,0.7502,0.7553,0.7595,0.7639,0.7703,0.7756,0.7796,0.7851,0.7881,0.7887,0.7895,0.7893,0.79,0.7843,0.7829,0.789,0.789,0.789,0.789,0.789,0.789,0.7289,0.7348,0.7366,0.7443,0.7473,0.7529,0.7555,0.7591,0.7624,0.7695,0.7739,0.7764,0.7806,0.7864,0.7914,0.7924,0.7944,0.7952,0.7963,0.791,0.7904,0.7898,0.7884,0.7956,0.7956,0.8016,0.8016,0.8017]},{"header":{"parameterUnit":"m.s-1","parameterCategory":1,"la1":30.2991,"la2":30.254,"lo1":-89.0895,"lo2":-89.0444,"dy":0.0017,"dx":0.0017,"nx":28,"ny":28,"refTime":"2025-07-02T21:00:00:Z","depth":0,"parameterNumber":3,"parameterNumberName":"V-component_of_WINDS"},"data":[0,0,0,0,0,0,0,0,0,0,0,0,0,0,0,0,0,0,0,0,0,0,0,0,0,0,0,0,0,0,0,0,0,0,0,0,0,0,0,0,0,0,0,0,0,0,0,0,0,0,0,0,0,0,0,0,0,0,-0.9031,-0.9031,0,-0.9007,-0.9006,-0.9006,-0.9044,-0.9046,-0.9047,-0.9048,-0.902,-0.9018,-0.9016,0,0,0,0,0,0,0,0,0,0,0,0,0,-0.9111,-0.911,-0.9031,-0.9031,-0.9031,-0.9007,-0.9006,-0.9006,-0.9044,-0.9046,-0.9047,-0.9049,-0.9021,-0.9019,-0.9016,0,0,0,0,0,0,0,0,0,0,0,0,0,-0.908,-0.9109,-0.9031,-0.9047,-0.9048,-0.9007,-0.9006,-0.9006,-0.9044,-0.9046,-0.9048,-0.905,-0.9022,-0.9019,-0.9016,-0.8957,0,0,-0.9007,-0.9005,0,0,0,0,0,0,0,0,-0.9082,-0.9077,-0.9045,-0.9046,-0.9047,-0.9031,-0.9024,-0.899,-0.9043,-0.9045,-0.9048,-0.9051,-0.9022,-0.9019,-0.901,-0.8956,-0.8955,-0.9006,-0.9005,-0.9003,-0.9003,0,0,0,0,0,0,0,-0.9084,-0.9079,-0.9022,-0.9044,-0.9046,-0.9055,-0.9053,-0.9018,-0.9023,-0.9045,-0.9048,-0.9045,-0.9023,-0.9013,-0.901,-0.8955,-0.9007,-0.9004,-0.9002,-0.9001,-0.8856,-0.8854,0,0,0,0,0,0,-0.9085,-0.908,-0.9022,-0.9021,-0.907,-0.9052,-0.905,-0.9034,-0.9023,-0.9023,-0.9043,-0.9047,-0.9017,-0.9013,-0.9009,-0.8943,-0.9003,-0.9001,-0.8999,-0.8858,-0.8856,-0.8854,0,0,0,0,0,0,-0.9086,-0.9079,-0.9023,-0.9051,-0.9045,-0.9049,-0.9031,-0.9032,-0.9022,-0.9021,-0.9022,-0.9032,-0.9018,-0.9013,-0.8971,-0.8943,-0.8999,-0.8997,-0.8861,-0.8857,-0.8855,-0.8809,0,0,0,0,0,0,-0.9088,-0.908,-0.9057,-0.9051,-0.9043,-0.8986,-0.9029,-0.903,-0.9017,-0.9022,-0.9011,-0.9011,-0.9019,-0.8975,-0.8968,-0.894,-0.8994,-0.8863,-0.8859,-0.8856,-0.8813,-0.8805,-0.8798,0,0,0,0,0,-0.9091,-0.9044,-0.9056,-0.9049,-0.9016,-0.8984,-0.898,-0.8991,-0.9015,-0.8993,-0.8993,-0.9012,-0.8946,-0.8971,-0.8963,-0.8933,-0.8865,-0.886,-0.8856,-0.8817,-0.8807,-0.8798,0,0,0,0,0,0,-0.9045,-0.9043,-0.9056,-0.9005,-0.8995,-0.8991,-0.8963,-0.8979,-0.8961,-0.8966,-0.8979,-0.8977,-0.8933,-0.8928,-0.8955,-0.8878,-0.891,-0.8903,-0.8883,-0.8873,-0.8866,-0.8868,-0.8992,0,0,0,0,0,-0.9029,-0.9004,-0.9004,-0.8959,-0.8953,-0.8959,-0.8946,-0.8955,-0.8945,-0.894,-0.8937,-0.8925,-0.8903,-0.8887,-0.8866,-0.8812,-0.8812,-0.8788,-0.878,-0.8774,-0.8769,-0.8744,-0.8735,-0.8838,-0.8838,-0.8838,0,0,-0.8995,-0.8991,-0.8974,-0.895,-0.8943,-0.8917,-0.8955,-0.8925,-0.8907,-0.8935,-0.8897,-0.8894,-0.8882,-0.8836,-0.8815,-0.8831,-0.874,-0.8768,-0.8763,-0.8762,-0.8739,-0.8729,-0.872,-0.8835,-0.8836,-0.8836,0,0,-0.8922,-0.8915,-0.888,-0.8873,-0.8863,-0.8867,-0.8859,-0.8853,-0.8853,-0.8815,-0.8837,-0.8815,-0.8774,-0.8766,-0.8757,-0.8684,-0.8702,-0.8677,-0.8637,-0.8613,-0.8605,-0.8598,-0.8575,-0.8566,-0.8671,-0.8671,-0.8671,0,-0.8882,-0.8845,-0.8858,-0.8829,-0.8819,-0.8845,-0.881,-0.8802,-0.8784,-0.8777,-0.8795,-0.8748,-0.8741,-0.8695,-0.8678,-0.8668,-0.8661,-0.8679,-0.8605,-0.8598,-0.8591,-0.857,-0.8561,-0.8668,-0.8669,-0.8669,-0.8669,0,-0.8797,-0.8772,-0.8744,-0.873,-0.8716,-0.8683,-0.8693,-0.8677,-0.8688,-0.8692,-0.8654,-0.8648,-0.8628,-0.8617,-0.8626,-0.8573,-0.8584,-0.8603,-0.8635,-0.8579,-0.8559,-0.8551,-0.8664,-0.8665,-0.8666,-0.8667,0,0,-0.8693,-0.869,-0.868,-0.8675,-0.8667,-0.8648,-0.8617,-0.8599,-0.8587,-0.8574,-0.8551,-0.8518,-0.8537,-0.8526,-0.8536,-0.8514,-0.8462,-0.8536,-0.8537,-0.8525,-0.8406,-0.8394,-0.8384,-0.8473,-0.8471,-0.847,-0.8408,0,-0.8623,-0.8573,-0.8586,-0.8535,-0.8514,-0.854,-0.8514,-0.8506,-0.8509,-0.8491,-0.8493,-0.8471,-0.8496,-0.8491,-0.847,-0.8472,-0.8438,-0.8476,-0.8452,-0.8451,-0.8457,-0.8373,-0.8359,-0.8301,-0.84,-0.8399,-0.8398,0,-0.8535,-0.8522,-0.8471,-0.847,-0.8462,-0.8438,-0.8425,-0.8406,-0.84,-0.8403,-0.8393,-0.8408,-0.8379,-0.8411,-0.8373,-0.8398,-0.8389,-0.8389,-0.8387,-0.8387,-0.8423,-0.8373,-0.8282,-0.8275,-0.8385,-0.8386,-0.8387,0,-0.8469,-0.8438,-0.8405,-0.84,-0.8397,-0.8381,-0.8379,-0.8374,-0.8364,-0.8351,-0.8345,-0.8329,-0.8321,-0.8308,-0.8319,-0.834,-0.828,-0.8312,-0.8284,-0.8284,-0.8271,-0.8272,-0.818,-0.8261,-0.8261,-0.8261,-0.8261,0,-0.8391,-0.8359,-0.8376,-0.8355,-0.8321,-0.8337,-0.8302,-0.8303,-0.8299,-0.828,-0.83,-0.8281,-0.8295,-0.8278,-0.8285,-0.8255,-0.825,-0.8253,-0.8256,-0.8253,-0.8253,-0.8248,-0.8254,-0.8259,-0.8259,-0.826,-0.826,0,-0.8311,-0.8321,-0.8287,-0.8289,-0.8289,-0.8264,-0.8265,-0.8247,-0.8252,-0.8228,-0.8223,-0.823,-0.8211,-0.822,-0.8199,-0.8205,-0.8167,-0.8173,-0.817,-0.8172,-0.8145,-0.8149,-0.8049,-0.8038,-0.8123,-0.8122,-0.8122,0,-0.8262,-0.8239,-0.824,-0.8229,-0.8227,-0.8209,-0.8199,-0.8214,-0.8203,-0.8196,-0.8179,-0.8162,-0.815,-0.8119,-0.8122,-0.8108,-0.8116,-0.8082,-0.8114,-0.8113,-0.8119,-0.8122,-0.8121,-0.8076,-0.8075,-0.8074,-0.8074,0,-0.8175,-0.8182,-0.8169,-0.8157,-0.8146,-0.8137,-0.813,-0.812,-0.8135,-0.8122,-0.8105,-0.8095,-0.8076,-0.806,-0.8048,-0.8046,-0.8063,-0.8064,-0.8057,-0.8055,-0.8055,-0.8058,-0.8155,-0.8066,-0.8067,-0.8068,-0.8068,-0.8068,-0.8112,-0.8094,-0.8093,-0.8078,-0.8075,-0.8069,-0.8053,-0.8057,-0.8043,-0.803,-0.8039,-0.8019,-0.8015,-0.8001,-0.7998,-0.7982,-0.7996,-0.7985,-0.7983,-0.7981,-0.7979,-0.8056,-0.798,-0.798,-0.798,-0.798,-0.798,0,-0.8029,-0.803,-0.8016,-0.8008,-0.7996,-0.8014,-0.8008,-0.7998,-0.798,-0.7976,-0.7965,-0.7946,-0.7931,-0.7935,-0.7922,-0.7909,-0.7917,-0.7906,-0.7908,-0.7908,-0.7966,-0.7975,-0.79,-0.79,-0.79,-0.79,-0.79,-0.79,-0.7985,-0.7957,-0.7964,-0.7936,-0.7937,-0.7919,-0.7914,-0.7909,-0.7907,-0.7886,-0.7874,-0.7877,-0.7877,-0.7865,-0.7853,-0.7854,-0.785,-0.7836,-0.7841,-0.7895,-0.7903,-0.7911,-0.7919,-0.7835,-0.7834,-0.7785,-0.7784,-0.7784]}]]